• In Italy
  • List of Countries
  • For 7 days
  • Water Temperature
  • Satellite Maps
  • Weather Map
  • Weather Widgets
  • user-avatar
    Login

    Hourly Weather Padang

    Today, 19 November, Sunday

    Time Temperature Precipitation Wind Pressure Humidity
    00:00 +27°C° 0.9 mm 1 mps 757 mmHg 94%
    01:00 +27°C° 0 mm 1 mps 757 mmHg 95%
    02:00 +27°C° 1.2 mm 1 mps 757 mmHg 96%
    03:00 +27°C° 1.2 mm 1 mps 757 mmHg 96%
    04:00 +27°C° 1.2 mm 1 mps 757 mmHg 96%
    05:00 +27°C° 1.3 mm 1 mps 757 mmHg 96%
    06:00 +27°C° 1.3 mm 1 mps 757 mmHg 96%
    07:00 +27°C° 0 mm 1 mps 757 mmHg 96%
    08:00 +28°C° 0.9 mm 1 mps 758 mmHg 95%
    09:00 +28°C° 0.9 mm 1 mps 758 mmHg 94%
    10:00 +29°C° 0.9 mm 1 mps 758 mmHg 93%
    11:00 +29°C° 1.2 mm 1 mps 758 mmHg 93%
    12:00 +29°C° 1.2 mm 1 mps 757 mmHg 92%
    13:00 +29°C° 0 mm 1 mps 757 mmHg 92%
    14:00 +29°C° 0.5 mm 1 mps 757 mmHg 91%
    15:00 +29°C° 0.5 mm 1 mps 756 mmHg 91%
    16:00 +29°C° 0.5 mm 1 mps 756 mmHg 91%
    17:00 +28°C° 0.6 mm 1 mps 756 mmHg 92%
    18:00 +28°C° 0.6 mm 1 mps 757 mmHg 93%
    19:00 +27°C° 0.6 mm 1 mps 757 mmHg 95%
    20:00 +27°C° 0.4 mm 1 mps 757 mmHg 95%
    21:00 +27°C° 0.4 mm 1 mps 758 mmHg 95%
    22:00 +27°C° 0.4 mm 1 mps 758 mmHg 95%
    23:00 +27°C° 0.7 mm 1 mps 758 mmHg 96%

    Tomorrow, 20 November, Monday

    Time Temperature Precipitation Wind Pressure Humidity
    00:00 +27°C° 0.7 mm 2 mps 758 mmHg 96%
    01:00 +27°C° 0.7 mm 2 mps 758 mmHg 96%
    02:00 +27°C° 0.9 mm 2 mps 758 mmHg 96%
    03:00 +27°C° 0.9 mm 2 mps 757 mmHg 96%
    04:00 +27°C° 0.9 mm 2 mps 757 mmHg 97%
    05:00 +27°C° 0.3 mm 2 mps 757 mmHg 96%
    06:00 +27°C° 0.3 mm 2 mps 757 mmHg 96%
    07:00 +27°C° 0.3 mm 2 mps 757 mmHg 96%
    08:00 +28°C° 0.1 mm 3 mps 758 mmHg 93%
    09:00 +29°C° 0.1 mm 3 mps 758 mmHg 89%
    10:00 +30°C° 0.1 mm 3 mps 758 mmHg 86%
    11:00 +30°C° 0.1 mm 3 mps 758 mmHg 83%
    12:00 +31°C° 0.1 mm 3 mps 758 mmHg 80%
    13:00 +31°C° 0.1 mm 3 mps 757 mmHg 77%
    14:00 +31°C° 0.1 mm 3 mps 757 mmHg 78%
    15:00 +30°C° 0.1 mm 3 mps 756 mmHg 79%
    16:00 +30°C° 0.1 mm 3 mps 756 mmHg 80%
    17:00 +29°C° 0.1 mm 3 mps 756 mmHg 83%
    18:00 +28°C° 0.1 mm 3 mps 757 mmHg 87%
    19:00 +27°C° 0.1 mm 2 mps 757 mmHg 90%
    20:00 +27°C° 0.1 mm 2 mps 757 mmHg 89%
    21:00 +27°C° 0.1 mm 2 mps 758 mmHg 89%
    22:00 +27°C° 0.1 mm 2 mps 759 mmHg 88%
    23:00 +27°C° 0.1 mm 2 mps 758 mmHg 89%

    Day after tomorrow, 21 November, Tuesday

    Time Temperature Precipitation Wind Pressure Humidity
    00:00 +26°C° 0.1 mm 2 mps 758 mmHg 89%
    01:00 +26°C° 0.1 mm 2 mps 758 mmHg 89%
    02:00 +26°C° 0 mm 2 mps 757 mmHg 90%
    03:00 +26°C° 0 mm 2 mps 757 mmHg 91%
    04:00 +26°C° 0 mm 2 mps 756 mmHg 92%
    05:00 +26°C° 0 mm 2 mps 756 mmHg 91%
    06:00 +27°C° 0 mm 2 mps 757 mmHg 90%
    07:00 +27°C° 0 mm 2 mps 757 mmHg 89%
    08:00 +29°C° 0 mm 2 mps 758 mmHg 80%
    09:00 +31°C° 0 mm 2 mps 758 mmHg 72%
    10:00 +34°C° 0 mm 2 mps 758 mmHg 64%
    11:00 +34°C° 0.1 mm 2 mps 758 mmHg 64%
    12:00 +34°C° 0.1 mm 2 mps 757 mmHg 64%
    13:00 +34°C° 0.1 mm 2 mps 756 mmHg 64%
    14:00 +34°C° 0.2 mm 2 mps 756 mmHg 67%
    15:00 +32°C° 0.2 mm 2 mps 755 mmHg 71%
    16:00 +31°C° 0.2 mm 1 mps 754 mmHg 75%
    17:00 +30°C° 0.2 mm 1 mps 755 mmHg 80%
    18:00 +29°C° 0.2 mm 1 mps 756 mmHg 85%
    19:00 +28°C° 0.2 mm 1 mps 756 mmHg 90%
    20:00 +27°C° 0.1 mm 1 mps 757 mmHg 90%
    21:00 +27°C° 0.1 mm 1 mps 757 mmHg 90%
    22:00 +27°C° 0.1 mm 1 mps 758 mmHg 90%
    23:00 +27°C° 0 mm 1 mps 758 mmHg 90%

    22 November, Wednesday

    Time Temperature Precipitation Wind Pressure Humidity
    00:00 +27°C° 0 mm 1 mps 757 mmHg 90%
    01:00 +27°C° 0 mm 1 mps 757 mmHg 90%
    02:00 +27°C° 0 mm 1 mps 756 mmHg 90%
    03:00 +26°C° 0 mm 2 mps 756 mmHg 90%
    04:00 +26°C° 0 mm 2 mps 755 mmHg 90%
    05:00 +27°C° 0.1 mm 2 mps 756 mmHg 90%
    06:00 +27°C° 0.1 mm 2 mps 756 mmHg 90%
    07:00 +27°C° 0.1 mm 2 mps 757 mmHg 89%
    08:00 +28°C° 0.2 mm 2 mps 757 mmHg 87%
    09:00 +29°C° 0.2 mm 2 mps 757 mmHg 84%
    10:00 +30°C° 0.2 mm 2 mps 758 mmHg 82%
    11:00 +30°C° 0.1 mm 2 mps 757 mmHg 81%
    12:00 +30°C° 0.1 mm 2 mps 756 mmHg 80%
    13:00 +31°C° 0.1 mm 2 mps 755 mmHg 79%
    14:00 +30°C° 0.2 mm 2 mps 755 mmHg 81%
    15:00 +30°C° 0.2 mm 2 mps 754 mmHg 83%
    16:00 +29°C° 0.2 mm 1 mps 754 mmHg 86%
    17:00 +29°C° 0.1 mm 1 mps 754 mmHg 87%
    18:00 +28°C° 0.1 mm 1 mps 755 mmHg 88%
    19:00 +27°C° 0.1 mm 1 mps 755 mmHg 89%
    20:00 +27°C° 0 mm 1 mps 756 mmHg 88%
    21:00 +27°C° 0 mm 1 mps 757 mmHg 88%
    22:00 +27°C° 0 mm 1 mps 757 mmHg 87%
    23:00 +27°C° 0.1 mm 1 mps 757 mmHg 87%

    23 November, Thursday

    Time Temperature Precipitation Wind Pressure Humidity
    00:00 +27°C° 0.1 mm 1 mps 756 mmHg 87%
    01:00 +27°C° 0.1 mm 1 mps 756 mmHg 87%
    02:00 +26°C° 0 mm 1 mps 756 mmHg 88%
    03:00 +26°C° 0 mm 1 mps 755 mmHg 88%
    04:00 +26°C° 0 mm 1 mps 755 mmHg 88%
    05:00 +27°C° 0 mm 1 mps 755 mmHg 87%
    06:00 +27°C° 0 mm 1 mps 756 mmHg 87%
    07:00 +28°C° 0 mm 1 mps 756 mmHg 86%
    08:00 +30°C° 0 mm 1 mps 757 mmHg 77%
    09:00 +32°C° 0 mm 1 mps 757 mmHg 68%
    10:00 +34°C° 0 mm 1 mps 757 mmHg 60%
    11:00 +35°C° 0.1 mm 2 mps 756 mmHg 61%
    12:00 +35°C° 0.1 mm 2 mps 755 mmHg 62%
    13:00 +35°C° 0.1 mm 2 mps 755 mmHg 62%
    14:00 +34°C° 0.3 mm 2 mps 754 mmHg 67%
    15:00 +34°C° 0.3 mm 2 mps 754 mmHg 71%
    16:00 +32°C° 0.3 mm 1 mps 753 mmHg 75%
    17:00 +30°C° 0.3 mm 1 mps 754 mmHg 81%
    18:00 +29°C° 0.3 mm 1 mps 755 mmHg 86%
    19:00 +28°C° 0.3 mm 1 mps 755 mmHg 91%
    20:00 +27°C° 0.1 mm 1 mps 756 mmHg 90%
    21:00 +27°C° 0.1 mm 1 mps 756 mmHg 89%
    22:00 +27°C° 0.1 mm 1 mps 757 mmHg 88%
    23:00 +27°C° 0.1 mm 1 mps 756 mmHg 88%

    24 November, Friday

    Time Temperature Precipitation Wind Pressure Humidity
    00:00 +27°C° 0.1 mm 1 mps 756 mmHg 87%
    01:00 +27°C° 0.1 mm 1 mps 756 mmHg 86%
    02:00 +27°C° 0.1 mm 1 mps 755 mmHg 86%
    03:00 +27°C° 0.1 mm 1 mps 755 mmHg 86%
    04:00 +27°C° 0.1 mm 1 mps 755 mmHg 86%
    05:00 +27°C° 0.1 mm 1 mps 755 mmHg 85%
    06:00 +28°C° 0.1 mm 1 mps 756 mmHg 85%
    07:00 +28°C° 0.1 mm 1 mps 756 mmHg 84%
    08:00 +30°C° 0 mm 1 mps 757 mmHg 76%
    09:00 +31°C° 0 mm 1 mps 757 mmHg 68%
    10:00 +33°C° 0 mm 1 mps 757 mmHg 60%
    11:00 +35°C° 0 mm 2 mps 756 mmHg 59%
    12:00 +35°C° 0 mm 2 mps 755 mmHg 58%
    13:00 +36°C° 0 mm 2 mps 755 mmHg 57%
    14:00 +35°C° 0.2 mm 2 mps 754 mmHg 64%
    15:00 +34°C° 0.2 mm 2 mps 754 mmHg 70%
    16:00 +32°C° 0.2 mm 2 mps 753 mmHg 77%
    17:00 +31°C° 0.5 mm 2 mps 754 mmHg 83%
    18:00 +29°C° 0.5 mm 1 mps 755 mmHg 88%
    19:00 +28°C° 0.5 mm 1 mps 756 mmHg 94%
    20:00 +28°C° 0.4 mm 1 mps 756 mmHg 93%
    21:00 +28°C° 0.4 mm 1 mps 757 mmHg 93%
    22:00 +27°C° 0.4 mm 1 mps 757 mmHg 93%
    23:00 +27°C° 0.2 mm 1 mps 757 mmHg 92%
    Show more